Route Details

Aircraft Information
Group: European Fleet
Types: A30F, A31F, B738
Route Data
Distance: 1056nm
Duration: 2h 39m
Origin METAR: LGAV 010550Z 03011KT 9999 SCT020 04/01 Q1019 NOSIG
Dest. METAR: EDDK 010520Z AUTO 26012KT 9999 FEW023 05/02 Q1020 NOSIG
Freight Data
(for Feb 1, 2023)
Load Factor:
77%
Manifested Cargo: 53,396lbs
Financial History
Total Freight: 173,551lbs
Average Load: 0lbs/flt
Fuel Used: 93,227lbs
Avg. Fuel Used: 0lbs/flt
Fuel Expense: $27,369
Avg. Fuel Expense: $0
Avg. Fuel Cost: $0/lbs
Total Gross Income: $702,528
Pilot Pay: $687
Total Expenses: $90,848
Total Revenue: $581,911
Average Revenue: $0

Capitol Logistics 559




LGAV
Eleftherios Venizelos International Airport
Athens, GR
EDDK
Cologne Bonn Airport
Cologne, DE